Dewpoint
24 25 25 24 23 24 24 22 19 18 19 21 24 24 24 24 22 27 32 36 38 39 39 39 38 38 39 40 41 41 42 44 49 49 47 45 45 44 43 43 41 39 38 38
22 23 21 18 17 16 16 18 20 21 21 24 23 25 20 19 21 21 25 30 36 38 39 38 38 37 38 39 40 41 42 44 45 43 42 42 41 41 40 39 39 38 37 36
13 19 17 9 10 14 17 26 23 20 22 19 18 18 21 20 21 24 24 21 31 37 39 38 37 36 37 38 39 40 42 45 42 41 40 40 40 39 38 38 38 37 37 37
14 16 3 6 20 19 26 27 30 26 23 19 20 20 21 24 24 26 28 28 25 36 38 38 36 36 36 37 38 39 41 42 41 40 39 39 38 38 38 38 38 38 38 38
12 12 12 18 23 22 21 25 28 27 27 27 25 21 21 20 19 24 28 28 24 35 39 38 36 35 36 36 37 38 39 41 41 40 39 39 38 38 38 38 38 38 38 38
17 13 9 17 21 25 24 21 26 26 26 26 24 15 17 18 18 20 23 23 23 30 39 38 36 36 35 35 36 37 38 40 40 40 39 38 38 37 38 38 38 38 38 38
16 15 17 18 20 20 18 18 23 25 25 23 16 16 17 18 18 19 20 22 24 27 36 38 35 35 35 35 35 37 39 40 40 40 38 38 38 37 37 37 37 37 36 37
17 14 10 13 13 8 17 20 22 19 19 19 18 19 21 21 21 21 20 20 23 26 32 38 35 35 35 34 36 37 38 38 38 38 38 37 37 37 36 36 34 33 33 33
17 17 14 14 13 15 19 20 20 21 21 21 22 21 20 19 21 22 22 21 22 26 30 36 36 35 35 35 35 36 36 36 36 37 37 36 35 35 35 35 33 33 32 32
11 7 13 18 17 20 21 20 21 22 20 19 18 18 18 19 22 24 23 23 23 25 25 27 37 35 35 36 36 35 34 35 35 35 35 35 35 35 34 34 33 32 32 31
13 14 19 17 18 20 19 20 20 18 17 18 18 19 20 21 21 21 23 25 25 24 24 26 36 35 36 36 36 35 34 34 34 35 34 33 33 34 34 35 34 33 31 29
13 18 19 19 18 18 19 17 17 17 18 18 18 18 19 18 19 20 21 23 25 26 25 27 34 35 35 35 36 35 34 33 33 32 33 33 32 32 37 37 37 34 32 31
18 19 18 18 18 18 17 17 17 17 17 17 17 18 18 19 19 23 22 23 24 25 27 27 31 35 34 35 35 35 34 33 33 33 32 32 32 32 31 35 36 35 33 33
18 17 15 16 16 17 17 16 17 16 17 17 18 18 19 20 20 20 21 22 24 26 27 27 28 35 34 34 35 34 34 35 32 32 32 32 32 32 32 31 30 31 33 33
17 18 17 17 16 15 15 15 15 15 16 16 18 18 19 20 20 21 22 22 23 24 27 27 28 33 33 34 33 33 34 33 32 32 32 33 32 32 32 30 30 31 31 32
18 17 15 15 14 14 15 15 15 15 16 17 18 19 20 21 22 22 23 23 23 24 26 27 28 32 33 34 33 33 33 34 34 32 32 32 32 31 29 29 30 30 30 31
15 14 15 13 13 14 15 15 15 17 19 19 18 19 21 22 23 24 23 23 23 26 26 28 30 33 33 33 33 33 33 33 35 32 32 31 30 29 28 28 28 29 30 31
17 17 17 17 16 16 15 16 17 18 19 21 21 21 22 23 25 24 23 24 24 25 27 30 31 32 33 33 33 33 33 33 32 31 30 30 26 27 27 27 28 28 29 31
16 16 16 16 16 17 17 18 18 20 20 20 21 22 27 27 27 26 24 24 24 25 28 29 32 32 32 33 33 33 32 32 31 31 29 28 27 26 26 27 27 27 29 30
15 15 16 15 16 16 17 18 18 19 19 20 20 21 23 24 27 27 25 24 26 26 28 30 30 31 31 33 34 33 32 31 31 30 28 28 27 26 26 27 26 27 28 29
14 14 15 15 15 16 17 19 19 18 19 19 18 19 21 22 22 27 27 26 28 30 30 31 29 30 31 32 33 32 32 31 31 30 31 28 29 27 26 26 25 25 26 27
13 14 14 14 14 14 16 19 19 18 18 17 17 17 18 19 19 21 25 26 31 33 31 29 29 31 32 34 32 32 32 32 31 32 31 30 28 28 26 26 25 25 25 26
11 13 15 14 14 14 17 18 18 19 17 17 16 16 17 19 19 17 16 24 27 32 32 32 34 34 34 32 31 31 31 31 31 31 31 30 29 28 27 26 26 26 25 25
9 11 11 13 14 14 13 16 18 19 18 18 17 17 16 16 17 18 20 23 26 26 27 31 33 34 33 31 31 31 30 30 30 30 30 31 29 29 28 27 26 25 25 25
11 12 10 12 11 12 14 16 17 17 16 16 16 17 17 18 17 18 19 18 22 20 21 26 27 27 24 26 28 29 30 30 30 30 29 29 29 28 27 27 26 26 26 25
11 13 12 12 10 12 14 16 14 15 16 13 15 15 16 16 18 17 16 19 17 18 16 19 21 19 19 20 21 22 22 22 23 24 23 23 23 24 23 23 23 23 22 22
12 16 13 13 13 12 14 15 13 14 16 13 12 13 13 14 15 15 16 14 14 14 14 14 16 18 17 16 16 16 16 19 20 17 17 17 17 17 17 17 17 16 16 16
Lifted_Index
8 8 8 7 7 7 6 6 5 5 5 5 5 5 5 5 4 3 3 3 4 5 5 6 6 5 5 5 5 4 3 3 2 2 2 3 3 2 2 2 2 1 2 2
7 8 8 7 7 7 7 6 6 6 5 5 5 5 5 5 4 4 3 4 5 5 5 6 6 6 6 5 5 4 3 3 2 2 2 3 3 3 3 2 2 2 3 3
6 6 6 6 7 7 7 7 6 6 6 5 5 5 5 5 5 4 4 5 5 6 5 5 6 6 6 6 5 4 3 2 2 2 3 4 4 4 4 4 4 4 4 4
5 5 5 6 7 7 7 7 7 7 6 6 6 6 6 6 6 5 5 5 6 6 5 5 5 6 6 6 5 4 3 2 2 3 3 4 5 6 6 6 6 6 6 6
4 4 5 7 8 8 7 7 7 7 7 6 6 6 6 6 6 6 6 6 6 6 6 5 6 6 6 6 5 4 4 3 3 3 4 5 6 7 7 7 7 7 7 7
5 4 5 7 8 7 7 7 7 8 8 8 7 7 7 7 8 8 7 7 7 7 6 6 6 6 6 6 5 5 4 4 4 4 5 6 6 7 7 8 8 8 8 8
5 5 5 7 8 8 8 8 9 9 9 9 9 9 9 9 9 9 9 8 8 7 7 7 7 6 6 6 6 6 6 5 5 5 6 6 6 7 7 7 8 8 8 8
7 6 6 8 9 9 9 10 10 10 10 10 10 10 10 10 10 10 10 9 9 9 8 8 8 7 6 6 6 7 6 6 5 6 6 6 7 7 7 7 7 7 8 8
9 8 9 9 10 11 11 11 11 10 10 10 10 9 9 9 9 9 9 9 9 9 9 9 8 7 7 6 7 7 7 6 6 6 7 7 7 7 7 7 7 7 8 9
10 10 11 11 11 11 12 11 11 10 10 10 9 8 8 8 8 9 9 9 9 9 9 9 9 8 7 7 7 7 7 6 6 6 7 7 7 7 7 7 7 8 9 9
10 11 11 11 11 11 11 10 10 10 9 9 9 8 8 8 8 8 9 9 9 9 9 9 9 8 7 7 7 7 7 7 7 7 7 7 7 7 8 8 8 8 9 10
10 11 11 11 11 11 10 10 9 9 8 8 8 8 8 8 8 8 9 9 10 9 9 9 9 8 7 7 7 7 7 7 8 8 8 8 8 8 9 9 10 10 11 12
11 12 11 11 11 11 10 10 9 9 9 9 9 9 9 9 9 9 9 9 10 10 9 9 9 9 8 7 7 7 7 8 8 9 9 8 8 8 9 10 10 11 13 14
12 12 12 11 11 10 10 10 10 10 10 11 11 11 10 9 9 8 9 9 10 10 10 9 9 9 8 8 7 7 7 8 8 9 9 9 9 9 9 10 11 12 14 15
12 12 12 11 10 9 10 10 10 10 10 11 11 11 10 9 9 8 9 9 9 9 9 9 9 9 9 8 7 7 7 8 9 9 9 9 10 10 10 10 11 13 14 15
11 11 11 10 9 9 9 10 10 10 10 10 10 10 10 9 9 8 8 9 8 8 8 9 9 9 9 8 8 7 7 8 9 9 9 10 10 10 10 11 12 13 14 14
11 11 10 9 8 9 9 10 11 11 11 10 10 10 10 9 8 8 8 8 8 7 8 8 9 9 9 8 8 7 7 8 8 9 9 10 10 11 11 13 13 13 14 13
12 11 10 10 10 10 10 11 11 11 11 10 10 10 9 9 8 7 7 7 7 7 7 8 9 9 8 8 8 7 7 7 8 8 9 10 11 12 13 14 13 13 13 14
12 11 10 10 11 11 11 11 11 11 11 10 10 9 9 8 8 7 7 7 6 6 6 7 8 8 8 7 7 8 7 7 7 8 9 10 12 13 14 13 13 13 14 14
11 10 10 10 11 11 11 11 11 11 11 10 9 8 8 8 7 7 6 5 5 5 6 6 7 8 8 7 7 7 7 7 7 8 9 10 12 12 12 12 13 14 14 14
10 10 10 10 10 11 11 11 11 11 11 10 9 8 8 7 7 6 6 5 5 5 5 5 6 7 7 8 7 7 7 7 7 8 9 9 10 11 11 12 13 14 14 14
10 10 10 10 10 11 11 11 11 11 11 10 10 9 8 8 8 7 6 6 6 6 5 5 6 7 7 8 8 8 8 8 8 8 8 9 10 10 11 12 13 13 13 13
10 10 10 10 10 10 11 11 11 11 11 11 11 10 10 9 9 8 7 8 8 7 7 7 7 8 8 8 8 8 8 8 9 9 9 9 10 10 11 12 13 13 13 13
11 11 11 11 11 11 11 11 11 11 11 11 11 11 11 10 10 9 9 9 9 9 8 8 9 9 9 9 9 9 9 10 10 10 10 10 10 11 11 12 13 13 13 13
11 11 12 12 11 11 11 11 11 11 11 11 12 12 11 11 10 10 10 10 10 9 9 9 10 10 10 10 10 10 11 11 11 11 11 11 11 11 12 12 13 13 13 13
11 12 12 12 12 12 12 12 12 12 12 12 12 12 12 12 11 11 10 10 10 10 10 10 10 11 11 11 12 12 12 12 12 12 12 12 12 12 13 13 13 13 13 14
12 12 12 12 13 13 13 13 12 12 12 12 12 12 12 12 11 11 11 11 10 10 10 10 11 11 11 12 12 12 13 13 13 13 13 13 13 13 13 13 13 14 14 14